Location: Stoke Bliss
(52.2667°N, 2.5167°W)
Time: 18:43:06
(UTC+00:00)

OBJECT-B - Pass Details

Date: 03 March 2021
Orbit: 414 x 427 km, 97.0° (Epoch: 11 April)

Event Time Altitude Azimuth Distance (km) Brightness Sun altitude
Exits shadow 19:38:15 46° 111° (ESE) 580 1.0 -16.8°
Maximum altitude 19:38:47 53° 73° (ENE) 528 0.9 -16.8°
Drops below altitude 10° 19:41:57 10° 356° (N) 1,516 3.8 -17.3°
Sets 19:43:59 0° 351° (N) 2,383 4.9 -17.6°
